Location: Heilbronn
(49.1548°N, 9.2780°E)
Time: 14:04:52
(UTC+01:00)

ISS - Pass Details

Date: 13 November 2017
Orbit: 402 x 407 km, 51.6° (Epoch: 23 November)

Event Time Altitude Azimuth Distance (km) Brightness Sun altitude
Exits shadow 06:35:02 13° 277° (W) 1,298 -1.9 -9.1°
Maximum altitude 06:37:38 36° 213° (SSW) 662 -2.9 -8.7°
Drops below altitude 10° 06:40:38 10° 145° (SE) 1,450 -0.1 -8.3°
Sets 06:42:48 0° 136° (SE) 2,307 1.3 -7.9°
